Flag for Australia Weather past 2 weeks in Toowoomba, Queensland, Australia

Now
41 °F

Quite cool.


Feels Like: 36 °F
Forecast: 47 / 62 °F
Wind: 8 mph from East

Location: Oakey Aerodrome

Current Time: Jul 4, 2015 at 11:52:30 PM

Latest Report: Jul 4, 2015 at 10:00 PM


Visibility: N/A

Pressure: 30.21 "Hg (28.07 "Hg at 597m altitude)

Humidity: 87%

Dew point: 38 °F

Location of ToowoombaLocation

Historic Weather in Toowoomba — Graph

°F

Toowoomba temperature yesterday

Maximum temperature yesterday: 63 °F (at 3:00 PM)
Minimum temperature yesterday: 32 °F (at 4:00 AM)
Average temperature yesterday: 44 °F

Past Weeks' High & Low Weather Summary

 TemperatureHumidityPressure
High70 °F (Jun 28, 3:00 PM)100% (Jun 20, 3:00 AM)30.47 "Hg (Jun 20, 3:00 AM)
Low31 °F (Jul 4, 4:00 AM)31% (Jul 3, 1:00 PM)30.09 "Hg (Jun 20, 3:00 PM)
Average52 °F80%30.28 "Hg
* Reported Jun 19 10:00 PM — Jul 4 10:00 PM, Toowoomba, Weather by CustomWeather, © 2015

Note: Actual official high and low records may vary slightly from our data, if they occured in-between our weather recording intervals... More about our weather records

Advertising

Toowoomba weather history for previous 24 hours

 ConditionsComfort  
Time TempWeatherWind HumidityBarometerVisibility
10:00 PM
Sat, Jul 4
41 °FQuite cool.8 mph87%30.21 "HgN/A
9:00 PM46 °FCool.6 mph89%30.21 "HgN/A
7:00 PM52 °FCool.7 mph76%30.18 "HgN/A
6:00 PM54 °FCool.8 mph70%30.15 "HgN/A
4:00 PM66 °FMild.6 mph44%30.14 "HgN/A
3:00 PM65 °FPassing clouds.5 mph47%30.14 "HgN/A
1:00 PM68 °FMild.5 mph44%30.17 "HgN/A
12:00 PM64 °FPassing clouds.8 mph52%30.21 "HgN/A
10:00 AM58 °FRefreshingly cool.6 mph58%30.26 "HgN/A
9:00 AM51 °FCool.7 mph70%30.27 "HgN/A
7:00 AM38 °FChilly.6 mph96%30.25 "HgN/A
6:00 AM36 °FOvercast.6 mph96%30.23 "HgN/A
4:00 AM31 °FChilly.3 mph92%30.22 "HgN/A
3:00 AM33 °FPassing clouds.5 mph93%30.22 "HgN/A
1:00 AM34 °FChilly.6 mph91%30.23 "HgN/A
12:00 AM35 °FChilly.3 mph86%30.24 "HgN/A
Weather by CustomWeather, © 2015

See weather overviewHow to use our weather pages